ProjectID,Date,Electric Generation,Electric Utility Import,Facility Electric Load
,YYYY-MM-DD,kW,kW,kW
540,2017-04-01,0.0,,0.0
540,2017-04-02,0.0,,0.0
540,2017-04-03,83.47916666666667,,83.47916666666667
540,2017-04-04,196.76666666666668,,196.76666666666668
540,2017-04-05,198.7791666666667,,198.7791666666667
540,2017-04-06,198.61249999999998,,198.61249999999998
540,2017-04-07,198.2291666666666,,198.2291666666666
540,2017-04-08,198.3125,,198.3125
540,2017-04-09,198.38333333333335,,198.38333333333335
540,2017-04-10,198.34999999999994,,198.34999999999994
540,2017-04-11,198.28750000000002,,198.28750000000002
540,2017-04-12,196.1291666666667,,196.1291666666667
540,2017-04-13,196.0666666666667,,196.0666666666667
540,2017-04-14,195.70416666666668,,195.70416666666668
540,2017-04-15,195.72083333333333,,195.72083333333333
540,2017-04-16,195.03333333333333,,195.03333333333333
540,2017-04-17,195.3458333333334,,195.3458333333334
540,2017-04-18,195.39999999999995,,195.39999999999995
540,2017-04-19,195.90000000000006,,195.90000000000006
540,2017-04-20,196.09999999999994,,196.09999999999994
540,2017-04-21,196.1958333333333,,196.1958333333333
540,2017-04-22,196.1833333333333,,196.1833333333333
540,2017-04-23,196.14999999999998,,196.14999999999998
540,2017-04-24,196.05416666666667,,196.05416666666667
540,2017-04-25,196.13333333333333,,196.13333333333333
540,2017-04-26,195.98750000000004,,195.98750000000004
540,2017-04-27,195.79583333333338,,195.79583333333338
540,2017-04-28,195.7458333333333,,195.7458333333333
540,2017-04-29,195.38333333333335,,195.38333333333335
540,2017-04-30,195.975,,195.975
540,2017-05-01,195.9291666666667,,195.9291666666667
540,2017-05-02,195.49166666666665,,195.49166666666665
540,2017-05-03,195.74583333333325,,195.74583333333325
540,2017-05-04,195.81249999999997,,195.81249999999997
540,2017-05-05,195.79999999999998,,195.79999999999998
540,2017-05-06,195.64166666666665,,195.64166666666665
540,2017-05-07,195.43749999999997,,195.43749999999997
540,2017-05-08,195.5958333333333,,195.5958333333333
540,2017-05-09,195.6916666666667,,195.6916666666667
540,2017-05-10,195.8416666666667,,195.8416666666667
540,2017-05-11,195.65000000000006,,195.65000000000006
540,2017-05-12,195.71249999999998,,195.71249999999998
540,2017-05-13,195.69166666666663,,195.69166666666663
540,2017-05-14,195.4708333333334,,195.4708333333334
540,2017-05-15,195.39166666666665,,195.39166666666665
540,2017-05-16,194.9,,194.9
540,2017-05-17,194.5916666666667,,194.5916666666667
540,2017-05-18,194.44583333333333,,194.44583333333333
540,2017-05-19,194.2125,,194.2125
540,2017-05-20,194.97083333333327,,194.97083333333327
540,2017-05-21,194.83333333333334,,194.83333333333334
540,2017-05-22,194.62916666666672,,194.62916666666672
540,2017-05-23,194.51250000000002,,194.51250000000002
540,2017-05-24,194.41250000000005,,194.41250000000005
540,2017-05-25,194.57916666666668,,194.57916666666668
540,2017-05-26,194.10833333333335,,194.10833333333335
540,2017-05-27,193.7791666666666,,193.7791666666666
540,2017-05-28,193.83749999999998,,193.83749999999998
540,2017-05-29,194.01666666666668,,194.01666666666668
540,2017-05-30,193.83333333333334,,193.83333333333334
540,2017-05-31,194.02916666666667,,194.02916666666667
540,2017-06-01,193.97500000000002,,193.97500000000002
540,2017-06-02,194.44166666666663,,194.44166666666663
540,2017-06-03,194.33333333333334,,194.33333333333334
540,2017-06-04,194.3833333333333,,194.3833333333333
540,2017-06-05,194.2875,,194.2875
540,2017-06-06,194.36666666666665,,194.36666666666665
540,2017-06-07,194.26666666666665,,194.26666666666665
540,2017-06-08,194.2583333333333,,194.2583333333333
540,2017-06-09,193.92083333333335,,193.92083333333335
540,2017-06-10,194.8166666666667,,194.8166666666667
540,2017-06-11,194.46249999999998,,194.46249999999998
540,2017-06-12,194.38333333333335,,194.38333333333335
540,2017-06-13,193.89999999999995,,193.89999999999995
540,2017-06-14,193.63333333333333,,193.63333333333333
540,2017-06-15,194.00000000000003,,194.00000000000003
540,2017-06-16,193.84583333333333,,193.84583333333333
540,2017-06-17,194.02916666666667,,194.02916666666667
540,2017-06-18,193.9416666666667,,193.9416666666667
540,2017-06-19,189.72500000000002,,189.72500000000002
540,2017-06-20,193.725,,193.725
540,2017-06-21,193.76666666666665,,193.76666666666665
540,2017-06-22,193.89166666666665,,193.89166666666665
540,2017-06-23,193.82083333333333,,193.82083333333333
540,2017-06-24,193.64583333333334,,193.64583333333334
540,2017-06-25,193.84583333333327,,193.84583333333327
540,2017-06-26,193.99583333333337,,193.99583333333337
540,2017-06-27,193.95416666666668,,193.95416666666668
540,2017-06-28,193.85416666666666,,193.85416666666666
540,2017-06-29,193.87083333333337,,193.87083333333337
540,2017-06-30,191.71249999999998,,191.71249999999998
540,2017-07-01,193.72500000000002,,193.72500000000002
540,2017-07-02,192.51666666666665,,192.51666666666665
540,2017-07-03,193.36249999999995,,193.36249999999995
540,2017-07-04,193.42499999999995,,193.42499999999995
540,2017-07-05,193.52083333333334,,193.52083333333334
540,2017-07-06,193.64166666666665,,193.64166666666665
540,2017-07-07,193.49583333333337,,193.49583333333337
540,2017-07-08,193.19166666666663,,193.19166666666663
540,2017-07-09,193.36666666666667,,193.36666666666667
540,2017-07-10,193.35416666666663,,193.35416666666663
540,2017-07-11,192.7166666666667,,192.7166666666667
540,2017-07-12,192.55416666666665,,192.55416666666665
540,2017-07-13,192.61249999999998,,192.61249999999998
540,2017-07-14,193.63750000000002,,193.63750000000002
540,2017-07-15,193.27083333333334,,193.27083333333334
540,2017-07-16,193.15416666666667,,193.15416666666667
540,2017-07-17,193.10833333333332,,193.10833333333332
540,2017-07-18,193.41666666666666,,193.41666666666666
540,2017-07-19,193.04166666666666,,193.04166666666666
540,2017-07-20,192.36250000000004,,192.36250000000004
540,2017-07-21,192.00833333333333,,192.00833333333333
540,2017-07-22,191.88333333333335,,191.88333333333335
540,2017-07-23,192.19583333333333,,192.19583333333333
540,2017-07-24,192.42500000000004,,192.42500000000004
540,2017-07-25,192.48750000000004,,192.48750000000004
540,2017-07-26,192.4958333333334,,192.4958333333334
540,2017-07-27,192.49166666666665,,192.49166666666665
540,2017-07-28,192.55416666666667,,192.55416666666667
540,2017-07-29,193.0333333333334,,193.0333333333334
540,2017-07-30,192.94166666666663,,192.94166666666663
540,2017-07-31,192.7083333333333,,192.7083333333333
540,2017-08-01,192.67916666666667,,192.67916666666667
540,2017-08-02,192.00833333333333,,192.00833333333333
540,2017-08-03,192.64583333333337,,192.64583333333337
540,2017-08-04,192.5583333333333,,192.5583333333333
540,2017-08-05,192.60833333333335,,192.60833333333335
540,2017-08-06,192.73749999999998,,192.73749999999998
540,2017-08-07,192.79166666666666,,192.79166666666666
540,2017-08-08,192.5666666666667,,192.5666666666667
540,2017-08-09,192.50833333333335,,192.50833333333335
540,2017-08-10,192.47083333333333,,192.47083333333333
540,2017-08-11,192.47500000000002,,192.47500000000002
540,2017-08-12,192.37499999999997,,192.37499999999997
540,2017-08-13,192.07083333333333,,192.07083333333333
540,2017-08-14,192.275,,192.275
540,2017-08-15,192.275,,192.275
540,2017-08-16,191.76666666666665,,191.76666666666665
540,2017-08-17,191.49166666666667,,191.49166666666667
540,2017-08-18,191.33333333333334,,191.33333333333334
540,2017-08-19,191.07499999999996,,191.07499999999996
540,2017-08-20,191.28750000000002,,191.28750000000002
540,2017-08-21,191.66666666666663,,191.66666666666663
540,2017-08-22,191.025,,191.025
540,2017-08-23,191.17499999999995,,191.17499999999995
540,2017-08-24,191.3708333333333,,191.3708333333333
540,2017-08-25,191.49999999999997,,191.49999999999997
540,2017-08-26,195.07916666666665,,195.07916666666665
540,2017-08-27,194.9708333333334,,194.9708333333334
540,2017-08-28,195.02916666666667,,195.02916666666667
540,2017-08-29,195.31250000000003,,195.31250000000003
540,2017-08-30,192.22083333333333,,192.22083333333333
540,2017-08-31,191.87500000000009,,191.87500000000009
540,2017-09-01,192.08749999999998,,192.08749999999998
540,2017-09-02,192.05833333333337,,192.05833333333337
540,2017-09-03,191.79583333333335,,191.79583333333335
540,2017-09-04,191.85000000000002,,191.85000000000002
540,2017-09-05,191.98749999999998,,191.98749999999998
540,2017-09-06,192.14166666666665,,192.14166666666665
540,2017-09-07,192.16666666666663,,192.16666666666663
540,2017-09-08,192.33333333333337,,192.33333333333337
540,2017-09-09,192.12916666666663,,192.12916666666663
540,2017-09-10,192.05000000000004,,192.05000000000004
540,2017-09-11,192.02083333333337,,192.02083333333337
540,2017-09-12,191.5375,,191.5375
540,2017-09-13,191.26666666666668,,191.26666666666668
540,2017-09-14,191.33333333333334,,191.33333333333334
540,2017-09-15,191.025,,191.025
540,2017-09-16,190.97916666666663,,190.97916666666663
540,2017-09-17,191.03750000000002,,191.03750000000002
540,2017-09-18,191.2791666666666,,191.2791666666666
540,2017-09-19,191.5916666666667,,191.5916666666667
540,2017-09-20,191.40833333333333,,191.40833333333333
540,2017-09-21,191.46666666666667,,191.46666666666667
540,2017-09-22,191.3125,,191.3125
540,2017-09-23,191.08333333333334,,191.08333333333334
540,2017-09-24,191.14166666666665,,191.14166666666665
540,2017-09-25,190.8333333333333,,190.8333333333333
540,2017-09-26,190.7458333333333,,190.7458333333333
540,2017-09-27,190.27500000000006,,190.27500000000006
540,2017-09-28,190.37500000000003,,190.37500000000003
540,2017-09-29,190.82499999999996,,190.82499999999996
540,2017-09-30,190.73750000000004,,190.73750000000004
540,2017-10-01,190.88750000000005,,190.88750000000005
540,2017-10-02,194.225,,194.225
540,2017-10-03,194.07499999999996,,194.07499999999996
540,2017-10-04,193.85833333333332,,193.85833333333332
540,2017-10-05,193.80416666666667,,193.80416666666667
540,2017-10-06,193.8208333333333,,193.8208333333333
540,2017-10-07,193.6833333333333,,193.6833333333333
540,2017-10-08,193.46249999999995,,193.46249999999995
540,2017-10-09,190.47083333333333,,190.47083333333333
540,2017-10-10,190.42083333333335,,190.42083333333335
540,2017-10-11,190.55833333333328,,190.55833333333328
540,2017-10-12,190.7708333333333,,190.7708333333333
540,2017-10-13,190.52916666666673,,190.52916666666673
540,2017-10-14,190.41666666666666,,190.41666666666666
540,2017-10-15,190.48749999999998,,190.48749999999998
540,2017-10-16,193.7125,,193.7125
540,2017-10-17,194.1583333333333,,194.1583333333333
540,2017-10-18,194.04166666666666,,194.04166666666666
540,2017-10-19,193.725,,193.725
540,2017-10-20,193.5875,,193.5875
540,2017-10-21,193.5041666666667,,193.5041666666667
540,2017-10-22,193.4458333333333,,193.4458333333333
540,2017-10-23,192.49583333333337,,192.49583333333337
540,2017-10-24,192.16666666666666,,192.16666666666666
540,2017-10-25,190.14583333333337,,190.14583333333337
540,2017-10-26,190.29166666666666,,190.29166666666666
540,2017-10-27,190.39166666666668,,190.39166666666668
540,2017-10-28,190.05416666666667,,190.05416666666667
540,2017-10-29,189.75000000000003,,189.75000000000003
540,2017-10-30,190.1208333333333,,190.1208333333333
540,2017-10-31,190.63333333333333,,190.63333333333333
540,2017-11-01,190.8708333333334,,190.8708333333334
540,2017-11-02,190.24999999999997,,190.24999999999997
540,2017-11-03,190.08750000000006,,190.08750000000006
540,2017-11-04,190.35416666666666,,190.35416666666666
540,2017-11-05,159.11250000000004,,159.11250000000004
540,2017-11-06,190.13750000000005,,190.13750000000005
540,2017-11-07,190.35833333333335,,190.35833333333335
540,2017-11-08,190.73333333333332,,190.73333333333332
540,2017-11-09,190.85416666666663,,190.85416666666663
540,2017-11-10,191.11250000000004,,191.11250000000004
540,2017-11-11,181.5583333333333,,181.5583333333333
540,2017-11-12,191.875,,191.875
540,2017-11-13,191.39166666666674,,191.39166666666674
540,2017-11-14,191.58749999999995,,191.58749999999995
540,2017-11-15,191.52916666666667,,191.52916666666667
540,2017-11-16,191.23333333333332,,191.23333333333332
540,2017-11-17,191.0958333333333,,191.0958333333333
540,2017-11-18,191.09583333333333,,191.09583333333333
540,2017-11-19,190.73333333333335,,190.73333333333335
540,2017-11-20,190.8458333333333,,190.8458333333333
540,2017-11-21,190.38333333333333,,190.38333333333333
540,2017-11-22,190.12083333333337,,190.12083333333337
540,2017-11-23,190.31666666666663,,190.31666666666663
540,2017-11-24,190.23333333333335,,190.23333333333335
540,2017-11-25,190.2291666666667,,190.2291666666667
540,2017-11-26,190.67083333333332,,190.67083333333332
540,2017-11-27,190.7583333333333,,190.7583333333333
540,2017-11-28,189.99583333333337,,189.99583333333337
540,2017-11-29,192.90416666666667,,192.90416666666667
540,2017-11-30,192.97500000000002,,192.97500000000002
540,2017-12-01,192.8791666666667,,192.8791666666667
540,2017-12-02,192.9625,,192.9625
540,2017-12-03,192.81249999999997,,192.81249999999997
540,2017-12-04,192.9375,,192.9375
540,2017-12-05,192.63333333333333,,192.63333333333333
540,2017-12-06,192.63333333333333,,192.63333333333333
540,2017-12-07,192.89583333333337,,192.89583333333337
540,2017-12-08,193.0291666666666,,193.0291666666666
540,2017-12-09,192.83333333333334,,192.83333333333334
540,2017-12-10,192.8166666666667,,192.8166666666667
540,2017-12-11,192.88750000000005,,192.88750000000005
540,2017-12-12,192.71666666666667,,192.71666666666667
540,2017-12-13,192.65833333333327,,192.65833333333327
540,2017-12-14,192.7166666666666,,192.7166666666666
540,2017-12-15,192.72916666666666,,192.72916666666666
540,2017-12-16,192.6833333333333,,192.6833333333333
540,2017-12-17,192.76666666666668,,192.76666666666668
540,2017-12-18,192.58750000000006,,192.58750000000006
540,2017-12-19,192.0291666666667,,192.0291666666667
540,2017-12-20,191.82083333333335,,191.82083333333335
540,2017-12-21,191.89583333333337,,191.89583333333337
540,2017-12-22,192.0333333333333,,192.0333333333333
540,2017-12-23,192.57083333333333,,192.57083333333333
540,2017-12-24,192.93749999999991,,192.93749999999991
540,2017-12-25,192.94166666666663,,192.94166666666663
540,2017-12-26,193.0333333333333,,193.0333333333333
540,2017-12-27,192.98750000000004,,192.98750000000004
540,2017-12-28,192.8791666666667,,192.8791666666667
540,2017-12-29,192.8791666666667,,192.8791666666667
540,2017-12-30,192.76666666666668,,192.76666666666668
540,2017-12-31,192.79583333333332,,192.79583333333332
540,2018-01-01,192.87083333333337,,192.87083333333337
540,2018-01-02,192.78750000000002,,192.78750000000002
540,2018-01-03,192.76666666666674,,192.76666666666674
540,2018-01-04,192.47916666666666,,192.47916666666666
540,2018-01-05,192.47500000000002,,192.47500000000002
540,2018-01-06,192.61249999999995,,192.61249999999995
540,2018-01-07,192.6,,192.6
540,2018-01-08,192.32916666666668,,192.32916666666668
540,2018-01-09,192.4125,,192.4125
540,2018-01-10,192.45416666666665,,192.45416666666665
540,2018-01-11,192.26250000000002,,192.26250000000002
540,2018-01-12,191.82916666666674,,191.82916666666674
540,2018-01-13,192.0666666666666,,192.0666666666666
540,2018-01-14,192.33749999999998,,192.33749999999998
540,2018-01-15,192.37083333333337,,192.37083333333337
540,2018-01-16,192.27499999999998,,192.27499999999998
540,2018-01-17,192.13749999999996,,192.13749999999996
540,2018-01-18,192.1333333333333,,192.1333333333333
540,2018-01-19,192.10416666666666,,192.10416666666666
540,2018-01-20,191.99583333333337,,191.99583333333337
540,2018-01-21,191.97083333333333,,191.97083333333333
540,2018-01-22,192.0916666666666,,192.0916666666666
540,2018-01-23,191.85833333333326,,191.85833333333326
540,2018-01-24,191.97916666666666,,191.97916666666666
540,2018-01-25,192.0916666666666,,192.0916666666666
540,2018-01-26,192.0916666666666,,192.0916666666666
540,2018-01-27,191.95000000000005,,191.95000000000005
540,2018-01-28,191.83750000000006,,191.83750000000006
540,2018-01-29,191.8375,,191.8375
540,2018-01-30,191.6208333333333,,191.6208333333333
540,2018-01-31,191.72916666666666,,191.72916666666666
540,2018-02-01,191.7208333333334,,191.7208333333334
540,2018-02-02,191.67499999999998,,191.67499999999998
540,2018-02-03,191.71249999999998,,191.71249999999998
540,2018-02-04,191.6625,,191.6625
540,2018-02-05,191.475,,191.475
540,2018-02-06,191.6958333333333,,191.6958333333333
540,2018-02-07,191.61666666666665,,191.61666666666665
540,2018-02-08,191.51666666666674,,191.51666666666674
540,2018-02-09,191.62083333333328,,191.62083333333328
540,2018-02-10,191.42083333333332,,191.42083333333332
540,2018-02-11,191.19583333333335,,191.19583333333335
540,2018-02-12,191.44583333333335,,191.44583333333335
540,2018-02-13,190.24999999999997,,190.24999999999997
540,2018-02-14,160.59583333333333,,160.59583333333333
540,2018-02-15,191.34583333333333,,191.34583333333333
540,2018-02-16,183.19999999999993,,183.19999999999993
540,2018-02-17,191.27083333333337,,191.27083333333337
540,2018-02-18,191.22500000000002,,191.22500000000002
540,2018-02-19,191.29166666666663,,191.29166666666663
540,2018-02-20,190.8041666666667,,190.8041666666667
540,2018-02-21,190.52916666666667,,190.52916666666667
540,2018-02-22,190.8083333333333,,190.8083333333333
540,2018-02-23,190.78749999999994,,190.78749999999994
540,2018-02-24,190.6208333333333,,190.6208333333333
540,2018-02-25,190.67916666666665,,190.67916666666665
540,2018-02-26,190.94583333333333,,190.94583333333333
540,2018-02-27,190.9041666666667,,190.9041666666667
540,2018-02-28,190.5916666666667,,190.5916666666667
540,2018-03-01,190.5291666666667,,190.5291666666667
540,2018-03-02,190.33333333333334,,190.33333333333334
540,2018-03-03,190.4291666666667,,190.4291666666667
540,2018-03-04,190.5041666666667,,190.5041666666667
540,2018-03-05,190.45416666666668,,190.45416666666668
540,2018-03-06,190.50833333333333,,190.50833333333333
540,2018-03-07,190.20416666666668,,190.20416666666668
540,2018-03-08,190.30416666666667,,190.30416666666667
540,2018-03-09,190.25416666666663,,190.25416666666663
540,2018-03-10,190.32500000000002,,190.32500000000002
540,2018-03-11,188.37083333333337,,188.37083333333337
540,2018-03-12,190.44166666666672,,190.44166666666672
540,2018-03-13,190.29166666666666,,190.29166666666666
540,2018-03-14,190.14999999999998,,190.14999999999998
540,2018-03-15,190.0958333333333,,190.0958333333333
540,2018-03-16,190.17499999999995,,190.17499999999995
540,2018-03-17,190.12083333333328,,190.12083333333328
540,2018-03-18,190.20416666666665,,190.20416666666665
540,2018-03-19,190.20416666666665,,190.20416666666665
540,2018-03-20,190.16666666666663,,190.16666666666663
540,2018-03-21,189.95833333333334,,189.95833333333334
540,2018-03-22,189.96250000000006,,189.96250000000006
540,2018-03-23,190.0875,,190.0875
540,2018-03-24,190.1,,190.1
540,2018-03-25,190.19999999999993,,190.19999999999993
540,2018-03-26,190.2875,,190.2875
540,2018-03-27,190.19999999999996,,190.19999999999996
540,2018-03-28,189.8208333333333,,189.8208333333333
540,2018-03-29,189.4166666666667,,189.4166666666667
540,2018-03-30,189.27916666666667,,189.27916666666667
540,2018-03-31,189.42499999999998,,189.42499999999998
540,2018-04-01,189.3125,,189.3125
540,2018-04-02,150.02916666666664,,150.02916666666664
540,2018-04-03,0.0,,0.0
540,2018-04-04,0.0,,0.0
540,2018-04-05,0.0,,0.0
540,2018-04-06,86.70416666666667,,86.70416666666667
540,2018-04-07,189.47083333333333,,189.47083333333333
540,2018-04-08,189.56250000000003,,189.56250000000003
540,2018-04-09,189.66666666666663,,189.66666666666663
540,2018-04-10,189.57083333333333,,189.57083333333333
540,2018-04-11,189.48750000000004,,189.48750000000004
540,2018-04-12,189.14166666666665,,189.14166666666665
540,2018-04-13,188.81666666666663,,188.81666666666663
540,2018-04-14,188.86666666666665,,188.86666666666665
540,2018-04-15,189.31666666666663,,189.31666666666663
540,2018-04-16,188.88750000000002,,188.88750000000002
540,2018-04-17,188.94999999999996,,188.94999999999996
540,2018-04-18,188.92499999999998,,188.92499999999998
540,2018-04-19,188.88750000000002,,188.88750000000002
540,2018-04-20,189.1583333333333,,189.1583333333333
540,2018-04-21,189.15,,189.15
540,2018-04-22,189.06666666666672,,189.06666666666672
540,2018-04-23,189.04166666666666,,189.04166666666666
540,2018-04-24,188.6875,,188.6875
540,2018-04-25,188.13333333333333,,188.13333333333333
540,2018-04-26,188.11666666666665,,188.11666666666665
540,2018-04-27,188.30416666666667,,188.30416666666667
540,2018-04-28,188.2708333333333,,188.2708333333333
540,2018-04-29,188.275,,188.275
540,2018-04-30,188.3541666666667,,188.3541666666667
540,2018-05-01,188.2583333333333,,188.2583333333333
540,2018-05-02,188.05000000000004,,188.05000000000004
540,2018-05-03,187.7125,,187.7125
540,2018-05-04,187.78750000000002,,187.78750000000002
540,2018-05-05,187.89999999999998,,187.89999999999998
540,2018-05-06,187.93333333333337,,187.93333333333337
540,2018-05-07,186.29999999999998,,186.29999999999998
540,2018-05-08,188.13750000000002,,188.13750000000002
540,2018-05-09,185.17499999999998,,185.17499999999998
540,2018-05-10,188.03750000000002,,188.03750000000002
540,2018-05-11,187.8416666666667,,187.8416666666667
540,2018-05-12,188.03750000000002,,188.03750000000002
540,2018-05-13,187.98333333333343,,187.98333333333343
540,2018-05-14,187.74166666666665,,187.74166666666665
540,2018-05-15,187.34583333333333,,187.34583333333333
540,2018-05-16,187.3125,,187.3125
540,2018-05-17,187.35833333333332,,187.35833333333332
540,2018-05-18,187.21666666666667,,187.21666666666667
540,2018-05-19,138.875,,138.875
540,2018-05-20,0.0,,0.0
540,2018-05-21,0.0,,0.0
540,2018-05-22,93.54583333333333,,93.54583333333333
540,2018-05-23,186.8166666666667,,186.8166666666667
540,2018-05-24,180.83750000000006,,180.83750000000006
540,2018-05-25,186.7125,,186.7125
540,2018-05-26,186.07499999999996,,186.07499999999996
540,2018-05-27,186.43750000000003,,186.43750000000003
540,2018-05-28,186.79999999999995,,186.79999999999995
540,2018-05-29,186.22500000000005,,186.22500000000005
540,2018-05-30,186.4,,186.4
540,2018-05-31,183.57083333333335,,183.57083333333335
540,2018-06-01,186.00833333333335,,186.00833333333335
540,2018-06-02,185.56666666666663,,185.56666666666663
540,2018-06-03,186.0583333333333,,186.0583333333333
540,2018-06-04,186.19583333333333,,186.19583333333333
540,2018-06-05,185.9958333333333,,185.9958333333333
540,2018-06-06,186.02500000000006,,186.02500000000006
540,2018-06-07,185.9333333333334,,185.9333333333334
540,2018-06-08,185.85416666666663,,185.85416666666663
540,2018-06-09,185.6458333333333,,185.6458333333333
540,2018-06-10,185.78749999999994,,185.78749999999994
540,2018-06-11,185.83749999999998,,185.83749999999998
540,2018-06-12,185.92083333333332,,185.92083333333332
540,2018-06-13,185.59583333333333,,185.59583333333333
540,2018-06-14,185.5666666666667,,185.5666666666667
540,2018-06-15,185.7875,,185.7875
540,2018-06-16,185.7875,,185.7875
540,2018-06-17,185.85416666666663,,185.85416666666663
540,2018-06-18,185.70000000000005,,185.70000000000005
540,2018-06-19,185.37499999999997,,185.37499999999997
540,2018-06-20,185.64166666666668,,185.64166666666668
540,2018-06-21,185.5291666666666,,185.5291666666666
540,2018-06-22,185.7166666666666,,185.7166666666666
540,2018-06-23,185.7791666666666,,185.7791666666666
540,2018-06-24,185.4666666666666,,185.4666666666666
540,2018-06-25,185.61250000000004,,185.61250000000004
540,2018-06-26,185.77499999999995,,185.77499999999995
540,2018-06-27,185.64166666666665,,185.64166666666665
540,2018-06-28,185.30833333333328,,185.30833333333328
540,2018-06-29,185.20833333333334,,185.20833333333334
540,2018-06-30,185.14166666666668,,185.14166666666668